Year,Month,Day,Hour,Minute,Value (Times are PST for temperature in C)
2009,04,24,00,00,2.20
2009,04,24,00,01,2.20
2009,04,24,00,02,2.20
2009,04,24,00,03,2.20
2009,04,24,00,04,2.30
2009,04,24,00,05,2.30
2009,04,24,00,06,2.30
2009,04,24,00,07,2.20
2009,04,24,00,08,2.20
2009,04,24,00,09,2.20
2009,04,24,00,10,2.20
2009,04,24,00,11,2.20
2009,04,24,00,12,2.20
2009,04,24,00,13,2.20
2009,04,24,00,14,2.10
2009,04,24,00,15,2.10
2009,04,24,00,16,2.10
2009,04,24,00,17,2.10
2009,04,24,00,18,2.10
2009,04,24,00,19,2.00
2009,04,24,00,20,2.00
2009,04,24,00,21,2.00
2009,04,24,00,22,2.00
2009,04,24,00,23,2.00
2009,04,24,00,24,2.00
2009,04,24,00,25,2.00
2009,04,24,00,26,1.90
2009,04,24,00,27,1.90
2009,04,24,00,28,1.90
2009,04,24,00,29,1.90
2009,04,24,00,30,2.00
2009,04,24,00,31,2.00
2009,04,24,00,32,2.00
2009,04,24,00,33,2.00
2009,04,24,00,34,2.00
2009,04,24,00,35,2.00
2009,04,24,00,36,2.00
2009,04,24,00,37,2.00
2009,04,24,00,38,2.00
2009,04,24,00,39,2.00
2009,04,24,00,40,2.00
2009,04,24,00,41,2.00
2009,04,24,00,42,2.00
2009,04,24,00,43,1.90
2009,04,24,00,44,1.90
2009,04,24,00,45,1.90
2009,04,24,00,46,1.90
2009,04,24,00,47,1.90
2009,04,24,00,48,1.90
2009,04,24,00,49,1.80
2009,04,24,00,50,1.90
2009,04,24,00,51,1.90
2009,04,24,00,52,1.90
2009,04,24,00,53,1.90
2009,04,24,00,54,1.90
2009,04,24,00,55,1.90
2009,04,24,00,56,1.90
2009,04,24,00,57,1.90
2009,04,24,00,58,1.90
2009,04,24,00,59,1.90
2009,04,24,01,00,1.90
2009,04,24,01,01,1.90
2009,04,24,01,02,1.90
2009,04,24,01,03,1.90
2009,04,24,01,04,1.90
2009,04,24,01,05,1.90
2009,04,24,01,06,1.90
2009,04,24,01,07,1.90
2009,04,24,01,08,1.90
2009,04,24,01,09,1.90
2009,04,24,01,10,1.90
2009,04,24,01,11,1.90
2009,04,24,01,12,1.90
2009,04,24,01,13,1.90
2009,04,24,01,14,1.90
2009,04,24,01,15,1.90
2009,04,24,01,16,1.90
2009,04,24,01,17,1.90
2009,04,24,01,18,1.90
2009,04,24,01,19,1.90
2009,04,24,01,20,1.90
2009,04,24,01,21,1.90
2009,04,24,01,22,1.90
2009,04,24,01,23,1.90
2009,04,24,01,24,1.90
2009,04,24,01,25,1.90
2009,04,24,01,26,1.90
2009,04,24,01,27,1.80
2009,04,24,01,28,1.80
2009,04,24,01,29,1.80
2009,04,24,01,30,1.80
2009,04,24,01,31,1.80
2009,04,24,01,32,1.80
2009,04,24,01,33,1.80
2009,04,24,01,34,1.80
2009,04,24,01,35,1.80
2009,04,24,01,36,1.80
2009,04,24,01,37,1.80
2009,04,24,01,38,1.80
2009,04,24,01,39,1.70
2009,04,24,01,40,1.70
2009,04,24,01,41,1.70
2009,04,24,01,42,1.70
2009,04,24,01,43,1.60
2009,04,24,01,44,1.60
2009,04,24,01,45,1.60
2009,04,24,01,46,1.60
2009,04,24,01,47,1.60
2009,04,24,01,48,1.60
2009,04,24,01,49,1.60
2009,04,24,01,50,1.70
2009,04,24,01,51,1.70
2009,04,24,01,52,1.70
2009,04,24,01,53,1.70
2009,04,24,01,54,1.60
2009,04,24,01,55,1.60
2009,04,24,01,56,1.60
2009,04,24,01,57,1.60
2009,04,24,01,58,1.60
2009,04,24,01,59,1.50
2009,04,24,02,00,1.50
2009,04,24,02,01,1.50
2009,04,24,02,02,1.50
2009,04,24,02,03,1.50
2009,04,24,02,04,1.50
2009,04,24,02,05,1.50
2009,04,24,02,06,1.60
2009,04,24,02,07,1.60
2009,04,24,02,08,1.60
2009,04,24,02,09,1.60
2009,04,24,02,10,1.60
2009,04,24,02,11,1.60
2009,04,24,02,12,1.60
2009,04,24,02,13,1.60
2009,04,24,02,14,1.60
2009,04,24,02,15,1.50
2009,04,24,02,16,1.50
2009,04,24,02,17,1.50
2009,04,24,02,18,1.50
2009,04,24,02,19,1.50
2009,04,24,02,20,1.40
2009,04,24,02,21,1.40
2009,04,24,02,22,1.40
2009,04,24,02,23,1.40
2009,04,24,02,24,1.40
2009,04,24,02,25,1.40
2009,04,24,02,26,1.30
2009,04,24,02,27,1.30
2009,04,24,02,28,1.30
2009,04,24,02,29,1.30
2009,04,24,02,30,1.30
2009,04,24,02,31,1.30
2009,04,24,02,32,1.30
2009,04,24,02,33,1.30
2009,04,24,02,34,1.30
2009,04,24,02,35,1.30
2009,04,24,02,36,1.30
2009,04,24,02,37,1.30
2009,04,24,02,38,1.30
2009,04,24,02,39,1.30
2009,04,24,02,40,1.30
2009,04,24,02,41,1.30
2009,04,24,02,42,1.30
2009,04,24,02,43,1.30
2009,04,24,02,44,1.30
2009,04,24,02,45,1.30
2009,04,24,02,46,1.30
2009,04,24,02,47,1.30
2009,04,24,02,48,1.30
2009,04,24,02,49,1.30
2009,04,24,02,50,1.30
2009,04,24,02,51,1.30
2009,04,24,02,52,1.30
2009,04,24,02,53,1.30
2009,04,24,02,54,1.30
2009,04,24,02,55,1.30
2009,04,24,02,56,1.30
2009,04,24,02,57,1.30
2009,04,24,02,58,1.30
2009,04,24,02,59,1.30
2009,04,24,03,00,1.30
2009,04,24,03,01,1.30
2009,04,24,03,02,1.30
2009,04,24,03,03,1.30
2009,04,24,03,04,1.30
2009,04,24,03,05,1.30
2009,04,24,03,06,1.30
2009,04,24,03,07,1.30
2009,04,24,03,08,1.30
2009,04,24,03,09,1.30
2009,04,24,03,10,1.20
2009,04,24,03,11,1.20
2009,04,24,03,12,1.20
2009,04,24,03,13,1.20
2009,04,24,03,14,1.20
2009,04,24,03,15,1.20
2009,04,24,03,16,1.20
2009,04,24,03,17,1.20
2009,04,24,03,18,1.20
2009,04,24,03,19,1.20
2009,04,24,03,20,1.20
2009,04,24,03,21,1.20
2009,04,24,03,22,1.20
2009,04,24,03,23,1.20
2009,04,24,03,24,1.10
2009,04,24,03,25,1.10
2009,04,24,03,26,1.10
2009,04,24,03,27,1.10
2009,04,24,03,28,1.00
2009,04,24,03,29,1.00
2009,04,24,03,30,1.00
2009,04,24,03,31,1.00
2009,04,24,03,32,1.00
2009,04,24,03,33,1.00
2009,04,24,03,34,1.00
2009,04,24,03,35,1.00
2009,04,24,03,36,1.00
2009,04,24,03,37,1.00
2009,04,24,03,38,1.00
2009,04,24,03,39,1.00
2009,04,24,03,40,1.00
2009,04,24,03,41,1.00
2009,04,24,03,42,1.00
2009,04,24,03,43,1.00
2009,04,24,03,44,1.10
2009,04,24,03,45,1.10
2009,04,24,03,46,1.10
2009,04,24,03,47,1.10
2009,04,24,03,48,1.10
2009,04,24,03,49,1.10
2009,04,24,03,50,1.10
2009,04,24,03,51,1.10
2009,04,24,03,52,1.10
2009,04,24,03,53,1.10
2009,04,24,03,54,1.10
2009,04,24,03,55,1.10
2009,04,24,03,56,1.00
2009,04,24,03,57,1.00
2009,04,24,03,58,1.00
2009,04,24,03,59,1.00
2009,04,24,04,00,0.90
2009,04,24,04,01,0.90
2009,04,24,04,02,0.90
2009,04,24,04,03,0.90
2009,04,24,04,04,0.90
2009,04,24,04,05,0.80
2009,04,24,04,06,0.80
2009,04,24,04,07,0.80
2009,04,24,04,08,0.80
2009,04,24,04,09,0.80
2009,04,24,04,10,0.80
2009,04,24,04,11,0.80
2009,04,24,04,12,0.80
2009,04,24,04,13,0.80
2009,04,24,04,14,0.80
2009,04,24,04,15,0.80
2009,04,24,04,16,0.80
2009,04,24,04,17,0.70
2009,04,24,04,18,0.70
2009,04,24,04,19,0.70
2009,04,24,04,20,0.70
2009,04,24,04,21,0.70
2009,04,24,04,22,0.70
2009,04,24,04,23,0.70
2009,04,24,04,24,0.70
2009,04,24,04,25,0.70
2009,04,24,04,26,0.70
2009,04,24,04,27,0.60
2009,04,24,04,28,0.60
2009,04,24,04,29,0.60
2009,04,24,04,30,0.60
2009,04,24,04,31,0.70
2009,04,24,04,32,0.70
2009,04,24,04,33,0.70
2009,04,24,04,34,0.70
2009,04,24,04,35,0.70
2009,04,24,04,36,0.70
2009,04,24,04,37,0.70
2009,04,24,04,38,0.70
2009,04,24,04,39,0.70
2009,04,24,04,40,0.70
2009,04,24,04,41,0.70
2009,04,24,04,42,0.70
2009,04,24,04,43,0.70
2009,04,24,04,44,0.70
2009,04,24,04,45,0.70
2009,04,24,04,46,0.70
2009,04,24,04,47,0.70
2009,04,24,04,48,0.70
2009,04,24,04,49,0.70
2009,04,24,04,50,0.70
2009,04,24,04,51,0.70
2009,04,24,04,52,0.70
2009,04,24,04,53,0.70
2009,04,24,04,54,0.70
2009,04,24,04,55,0.80
2009,04,24,04,56,0.80
2009,04,24,04,57,0.80
2009,04,24,04,58,0.80
2009,04,24,04,59,0.80
2009,04,24,05,00,0.80
2009,04,24,05,01,0.80
2009,04,24,05,02,0.80
2009,04,24,05,03,0.80
2009,04,24,05,04,0.80
2009,04,24,05,05,0.70
2009,04,24,05,06,0.70
2009,04,24,05,07,0.70
2009,04,24,05,08,0.60
2009,04,24,05,09,0.60
2009,04,24,05,10,0.60
2009,04,24,05,11,0.60
2009,04,24,05,12,0.60
2009,04,24,05,13,0.60
2009,04,24,05,14,0.50
2009,04,24,05,15,0.50
2009,04,24,05,16,0.50
2009,04,24,05,17,0.50
2009,04,24,05,18,0.40
2009,04,24,05,19,0.40
2009,04,24,05,20,0.40
2009,04,24,05,21,0.40
2009,04,24,05,22,0.40
2009,04,24,05,23,0.40
2009,04,24,05,24,0.40
2009,04,24,05,25,0.40
2009,04,24,05,26,0.40
2009,04,24,05,27,0.40
2009,04,24,05,28,0.40
2009,04,24,05,29,0.40
2009,04,24,05,30,0.30
2009,04,24,05,31,0.30
2009,04,24,05,32,0.30
2009,04,24,05,33,0.30
2009,04,24,05,34,0.30
2009,04,24,05,35,0.20
2009,04,24,05,36,0.20
2009,04,24,05,37,0.20
2009,04,24,05,38,0.20
2009,04,24,05,39,0.20
2009,04,24,05,40,0.20
2009,04,24,05,41,0.20
2009,04,24,05,42,0.20
2009,04,24,05,43,0.20
2009,04,24,05,44,0.20
2009,04,24,05,45,0.20
2009,04,24,05,46,0.30
2009,04,24,05,47,0.30
2009,04,24,05,48,0.30
2009,04,24,05,49,0.20
2009,04,24,05,50,0.20
2009,04,24,05,51,0.20
2009,04,24,05,52,0.20
2009,04,24,05,53,0.20
2009,04,24,05,54,0.20
2009,04,24,05,55,0.20
2009,04,24,05,56,0.20
2009,04,24,05,57,0.20
2009,04,24,05,58,0.20
2009,04,24,05,59,0.20
2009,04,24,06,00,0.20
2009,04,24,06,01,0.30
2009,04,24,06,02,0.30
2009,04,24,06,03,0.30
2009,04,24,06,04,0.30
2009,04,24,06,05,0.30
2009,04,24,06,06,0.30
2009,04,24,06,07,0.30
2009,04,24,06,08,0.30
2009,04,24,06,09,0.30
2009,04,24,06,10,0.30
2009,04,24,06,11,0.30
2009,04,24,06,12,0.30
2009,04,24,06,13,0.20
2009,04,24,06,14,0.20
2009,04,24,06,15,0.20
2009,04,24,06,16,0.30
2009,04,24,06,17,0.30
2009,04,24,06,18,0.30
2009,04,24,06,19,0.30
2009,04,24,06,20,0.30
2009,04,24,06,21,0.30
2009,04,24,06,22,0.30
2009,04,24,06,23,0.20
2009,04,24,06,24,0.20
2009,04,24,06,25,0.20
2009,04,24,06,26,0.10
2009,04,24,06,27,0.10
2009,04,24,06,28,0.10
2009,04,24,06,29,0.10
2009,04,24,06,30,0.10
2009,04,24,06,31,0.10
2009,04,24,06,32,0.10
2009,04,24,06,33,0.10
2009,04,24,06,34,0.00
2009,04,24,06,35,0.00
2009,04,24,06,36,0.10
2009,04,24,06,37,0.10
2009,04,24,06,38,0.10
2009,04,24,06,39,0.10
2009,04,24,06,40,0.10
2009,04,24,06,41,0.20
2009,04,24,06,42,0.20
2009,04,24,06,43,0.30
2009,04,24,06,44,0.30
2009,04,24,06,45,0.40
2009,04,24,06,46,0.40
2009,04,24,06,47,0.40
2009,04,24,06,48,0.40
2009,04,24,06,49,0.40
2009,04,24,06,50,0.40
2009,04,24,06,51,0.40
2009,04,24,06,52,0.40
2009,04,24,06,53,0.50
2009,04,24,06,54,0.50
2009,04,24,06,55,0.50
2009,04,24,06,56,0.60
2009,04,24,06,57,0.70
2009,04,24,06,58,0.70
2009,04,24,06,59,0.70
2009,04,24,07,00,0.80
2009,04,24,07,01,0.80
2009,04,24,07,02,0.80
2009,04,24,07,03,0.80
2009,04,24,07,04,0.80
2009,04,24,07,05,0.80
2009,04,24,07,06,0.80
2009,04,24,07,07,0.90
2009,04,24,07,08,0.90
2009,04,24,07,09,1.00
2009,04,24,07,10,1.00
2009,04,24,07,11,1.10
2009,04,24,07,12,1.20
2009,04,24,07,13,1.20
2009,04,24,07,14,1.30
2009,04,24,07,15,1.30
2009,04,24,07,16,1.30
2009,04,24,07,17,1.30
2009,04,24,07,18,1.40
2009,04,24,07,19,1.40
2009,04,24,07,20,1.40
2009,04,24,07,21,1.40
2009,04,24,07,22,1.50
2009,04,24,07,23,1.50
2009,04,24,07,24,1.50
2009,04,24,07,25,1.50
2009,04,24,07,26,1.60
2009,04,24,07,27,1.60
2009,04,24,07,28,1.60
2009,04,24,07,29,1.60
2009,04,24,07,30,1.70
2009,04,24,07,31,1.70
2009,04,24,07,32,1.70
2009,04,24,07,33,1.80
2009,04,24,07,34,1.80
2009,04,24,07,35,1.80
2009,04,24,07,36,1.80
2009,04,24,07,37,1.90
2009,04,24,07,38,1.90
2009,04,24,07,39,1.90
2009,04,24,07,40,2.00
2009,04,24,07,41,2.00
2009,04,24,07,42,2.10
2009,04,24,07,43,2.10
2009,04,24,07,44,2.20
2009,04,24,07,45,2.20
2009,04,24,07,46,2.30
2009,04,24,07,47,2.40
2009,04,24,07,48,2.50
2009,04,24,07,49,2.60
2009,04,24,07,50,2.70
2009,04,24,07,51,2.70
2009,04,24,07,52,2.80
2009,04,24,07,53,2.80
2009,04,24,07,54,2.90
2009,04,24,07,55,2.90
2009,04,24,07,56,2.90
2009,04,24,07,57,3.00
2009,04,24,07,58,3.10
2009,04,24,07,59,3.10
2009,04,24,08,00,3.10
2009,04,24,08,01,3.20
2009,04,24,08,02,3.20
2009,04,24,08,03,3.30
2009,04,24,08,04,3.30
2009,04,24,08,05,3.40
2009,04,24,08,06,3.50
2009,04,24,08,07,3.50
2009,04,24,08,08,3.60
2009,04,24,08,09,3.60
2009,04,24,08,10,3.70
2009,04,24,08,11,3.80
2009,04,24,08,12,3.80
2009,04,24,08,13,3.80
2009,04,24,08,14,3.90
2009,04,24,08,15,4.00
2009,04,24,08,16,4.10
2009,04,24,08,17,4.20
2009,04,24,08,18,4.30
2009,04,24,08,19,4.30
2009,04,24,08,20,4.40
2009,04,24,08,21,4.50
2009,04,24,08,22,4.60
2009,04,24,08,23,4.70
2009,04,24,08,24,4.80
2009,04,24,08,25,4.90
2009,04,24,08,26,5.00
2009,04,24,08,27,5.10
2009,04,24,08,28,5.30
2009,04,24,08,29,5.50
2009,04,24,08,30,5.60
2009,04,24,08,31,5.70
2009,04,24,08,32,5.80
2009,04,24,08,33,5.90
2009,04,24,08,34,5.90
2009,04,24,08,35,6.00
2009,04,24,08,36,6.00
2009,04,24,08,37,6.10
2009,04,24,08,38,6.20
2009,04,24,08,39,6.20
2009,04,24,08,40,6.20
2009,04,24,08,41,6.20
2009,04,24,08,42,6.30
2009,04,24,08,43,6.30
2009,04,24,08,44,6.30
2009,04,24,08,45,6.40
2009,04,24,08,46,6.40
2009,04,24,08,47,6.40
2009,04,24,08,48,6.40
2009,04,24,08,49,6.50
2009,04,24,08,50,6.60
2009,04,24,08,51,6.70
2009,04,24,08,52,6.80
2009,04,24,08,53,6.90
2009,04,24,08,54,7.00
2009,04,24,08,55,7.10
2009,04,24,08,56,7.20
2009,04,24,08,57,7.20
2009,04,24,08,58,7.30
2009,04,24,08,59,7.20
2009,04,24,09,00,7.20
2009,04,24,09,01,7.20
2009,04,24,09,02,7.20
2009,04,24,09,03,7.30
2009,04,24,09,04,7.30
2009,04,24,09,05,7.40
2009,04,24,09,06,7.50
2009,04,24,09,07,7.60
2009,04,24,09,08,7.70
2009,04,24,09,09,7.80
2009,04,24,09,10,7.90
2009,04,24,09,11,8.00
2009,04,24,09,12,8.10
2009,04,24,09,13,8.20
2009,04,24,09,14,8.30
2009,04,24,09,15,8.40
2009,04,24,09,16,8.60
2009,04,24,09,17,8.70
2009,04,24,09,18,8.90
2009,04,24,09,19,9.00
2009,04,24,09,20,9.20
2009,04,24,09,21,9.30
2009,04,24,09,22,9.40
2009,04,24,09,23,9.30
2009,04,24,09,24,9.30
2009,04,24,09,25,9.20
2009,04,24,09,26,9.20
2009,04,24,09,27,9.20
2009,04,24,09,28,9.20
2009,04,24,09,29,9.20
2009,04,24,09,30,9.20
2009,04,24,09,31,9.30
2009,04,24,09,32,9.20
2009,04,24,09,33,9.20
2009,04,24,09,34,9.20
2009,04,24,09,35,9.30
2009,04,24,09,36,9.30
2009,04,24,09,37,9.30
2009,04,24,09,38,9.30
2009,04,24,09,39,9.30
2009,04,24,09,40,9.30
2009,04,24,09,41,9.30
2009,04,24,09,42,9.30
2009,04,24,09,43,9.20
2009,04,24,09,44,9.20
2009,04,24,09,45,9.20
2009,04,24,09,46,9.20
2009,04,24,09,47,9.20
2009,04,24,09,48,9.20
2009,04,24,09,49,9.20
2009,04,24,09,50,9.20
2009,04,24,09,51,9.20
2009,04,24,09,52,9.20
2009,04,24,09,53,9.30
2009,04,24,09,54,9.40
2009,04,24,09,55,9.50
2009,04,24,09,56,9.50
2009,04,24,09,57,9.50
2009,04,24,09,58,9.60
2009,04,24,09,59,9.60
2009,04,24,10,00,9.50
2009,04,24,10,01,9.50
2009,04,24,10,02,9.50
2009,04,24,10,03,9.50
2009,04,24,10,04,9.70
2009,04,24,10,05,9.80
2009,04,24,10,06,9.90
2009,04,24,10,07,10.00
2009,04,24,10,08,10.10
2009,04,24,10,09,10.10
2009,04,24,10,10,10.10
2009,04,24,10,11,10.20
2009,04,24,10,12,10.20
2009,04,24,10,13,10.30
2009,04,24,10,14,10.30
2009,04,24,10,15,10.40
2009,04,24,10,16,10.40
2009,04,24,10,17,10.40
2009,04,24,10,18,10.40
2009,04,24,10,19,10.60
2009,04,24,10,20,10.60
2009,04,24,10,21,10.60
2009,04,24,10,22,10.70
2009,04,24,10,23,10.80
2009,04,24,10,24,10.80
2009,04,24,10,25,10.90
2009,04,24,10,26,10.90
2009,04,24,10,27,10.90
2009,04,24,10,28,10.90
2009,04,24,10,29,10.90
2009,04,24,10,30,10.80
2009,04,24,10,31,10.80
2009,04,24,10,32,10.70
2009,04,24,10,33,10.70
2009,04,24,10,34,10.70
2009,04,24,10,35,10.70
2009,04,24,10,36,10.70
2009,04,24,10,37,10.70
2009,04,24,10,38,10.70
2009,04,24,10,39,10.80
2009,04,24,10,40,10.80
2009,04,24,10,41,10.80
2009,04,24,10,42,10.80
2009,04,24,10,43,10.70
2009,04,24,10,44,10.70
2009,04,24,10,45,10.60
2009,04,24,10,46,10.60
2009,04,24,10,47,10.60
2009,04,24,10,48,10.60
2009,04,24,10,49,10.60
2009,04,24,10,50,10.60
2009,04,24,10,51,10.60
2009,04,24,10,52,10.60
2009,04,24,10,53,10.70
2009,04,24,10,54,10.70
2009,04,24,10,55,10.60
2009,04,24,10,56,10.40
2009,04,24,10,57,10.40
2009,04,24,10,58,10.30
2009,04,24,10,59,10.30
2009,04,24,11,00,10.20
2009,04,24,11,01,10.20
2009,04,24,11,02,10.20
2009,04,24,11,03,10.30
2009,04,24,11,04,10.30
2009,04,24,11,05,10.30
2009,04,24,11,06,10.30
2009,04,24,11,07,10.30
2009,04,24,11,08,10.30
2009,04,24,11,09,10.30
2009,04,24,11,10,10.30
2009,04,24,11,11,10.30
2009,04,24,11,12,10.20
2009,04,24,11,13,10.20
2009,04,24,11,14,10.30
2009,04,24,11,15,10.30
2009,04,24,11,16,10.30
2009,04,24,11,17,10.30
2009,04,24,11,18,10.30
2009,04,24,11,19,10.20
2009,04,24,11,20,10.30
2009,04,24,11,21,10.30
2009,04,24,11,22,10.40
2009,04,24,11,23,10.40
2009,04,24,11,24,10.40
2009,04,24,11,25,10.50
2009,04,24,11,26,10.60
2009,04,24,11,27,10.60
2009,04,24,11,28,10.60
2009,04,24,11,29,10.70
2009,04,24,11,30,10.70
2009,04,24,11,31,10.80
2009,04,24,11,32,10.80
2009,04,24,11,33,10.90
2009,04,24,11,34,10.90
2009,04,24,11,35,10.90
2009,04,24,11,36,10.90
2009,04,24,11,37,11.00
2009,04,24,11,38,11.10
2009,04,24,11,39,11.00
2009,04,24,11,40,10.90
2009,04,24,11,41,10.90
2009,04,24,11,42,10.90
2009,04,24,11,43,10.90
2009,04,24,11,44,10.90
2009,04,24,11,45,10.90
2009,04,24,11,46,11.00
2009,04,24,11,47,11.10
2009,04,24,11,48,11.10
2009,04,24,11,49,11.10
2009,04,24,11,50,11.00
2009,04,24,11,51,10.90
2009,04,24,11,52,11.00
2009,04,24,11,53,11.10
2009,04,24,11,54,11.10
2009,04,24,11,55,11.20
2009,04,24,11,56,11.20
2009,04,24,11,57,11.20
2009,04,24,11,58,11.20
2009,04,24,11,59,11.20
2009,04,24,12,00,11.20
2009,04,24,12,01,11.20
2009,04,24,12,02,11.20
2009,04,24,12,03,11.20
2009,04,24,12,04,11.20
2009,04,24,12,05,11.40
2009,04,24,12,06,11.40
2009,04,24,12,07,11.60
2009,04,24,12,08,11.60
2009,04,24,12,09,11.60
2009,04,24,12,10,11.60
2009,04,24,12,11,11.70
2009,04,24,12,12,11.80
2009,04,24,12,13,11.80
2009,04,24,12,14,11.80
2009,04,24,12,15,11.90
2009,04,24,12,16,12.00
2009,04,24,12,17,12.00
2009,04,24,12,18,12.10
2009,04,24,12,19,12.10
2009,04,24,12,20,12.20
2009,04,24,12,21,12.30
2009,04,24,12,22,12.40
2009,04,24,12,23,12.50
2009,04,24,12,24,12.70
2009,04,24,12,25,12.80
2009,04,24,12,26,12.80
2009,04,24,12,27,12.80
2009,04,24,12,28,12.70
2009,04,24,12,29,12.80
2009,04,24,12,30,12.80
2009,04,24,12,31,12.90
2009,04,24,12,32,12.90
2009,04,24,12,33,12.90
2009,04,24,12,34,12.90
2009,04,24,12,35,13.00
2009,04,24,12,36,13.00
2009,04,24,12,37,12.90
2009,04,24,12,38,12.80
2009,04,24,12,39,12.70
2009,04,24,12,40,12.60
2009,04,24,12,41,12.50
2009,04,24,12,42,12.60
2009,04,24,12,43,12.70
2009,04,24,12,44,12.90
2009,04,24,12,45,13.10
2009,04,24,12,46,13.20
2009,04,24,12,47,13.10
2009,04,24,12,48,13.00
2009,04,24,12,49,13.00
2009,04,24,12,50,13.10
2009,04,24,12,51,13.10
2009,04,24,12,52,13.10
2009,04,24,12,53,13.20
2009,04,24,12,54,13.30
2009,04,24,12,55,13.40
2009,04,24,12,56,13.40
2009,04,24,12,57,13.30
2009,04,24,12,58,13.30
2009,04,24,12,59,13.30
2009,04,24,13,00,13.30
2009,04,24,13,01,13.20
2009,04,24,13,02,13.10
2009,04,24,13,03,13.20
2009,04,24,13,04,13.10
2009,04,24,13,05,13.20
2009,04,24,13,06,13.30
2009,04,24,13,07,13.30
2009,04,24,13,08,13.30
2009,04,24,13,09,13.30
2009,04,24,13,10,13.30
2009,04,24,13,11,13.30
2009,04,24,13,12,13.20
2009,04,24,13,13,13.20
2009,04,24,13,14,13.20
2009,04,24,13,15,13.20
2009,04,24,13,16,13.30
2009,04,24,13,17,13.30
2009,04,24,13,18,13.30
2009,04,24,13,19,13.30
2009,04,24,13,20,13.30
2009,04,24,13,21,13.30
2009,04,24,13,22,13.30
2009,04,24,13,23,13.30
2009,04,24,13,24,13.30
2009,04,24,13,25,13.20
2009,04,24,13,26,13.10
2009,04,24,13,27,13.10
2009,04,24,13,28,13.20
2009,04,24,13,29,13.30
2009,04,24,13,30,13.30
2009,04,24,13,31,13.30
2009,04,24,13,32,13.20
2009,04,24,13,33,13.20
2009,04,24,13,34,13.20
2009,04,24,13,35,13.20
2009,04,24,13,36,13.30
2009,04,24,13,37,13.40
2009,04,24,13,38,13.40
2009,04,24,13,39,13.30
2009,04,24,13,40,13.30
2009,04,24,13,41,13.50
2009,04,24,13,42,13.50
2009,04,24,13,43,13.60
2009,04,24,13,44,13.70
2009,04,24,13,45,13.70
2009,04,24,13,46,13.70
2009,04,24,13,47,13.60
2009,04,24,13,48,13.60
2009,04,24,13,49,13.40
2009,04,24,13,50,13.40
2009,04,24,13,51,13.40
2009,04,24,13,52,13.40
2009,04,24,13,53,13.40
2009,04,24,13,54,13.50
2009,04,24,13,55,13.40
2009,04,24,13,56,13.40
2009,04,24,13,57,13.40
2009,04,24,13,58,13.50
2009,04,24,13,59,13.50
2009,04,24,14,00,13.60
2009,04,24,14,01,13.80
2009,04,24,14,02,13.90
2009,04,24,14,03,14.00
2009,04,24,14,04,14.10
2009,04,24,14,05,14.20
2009,04,24,14,06,14.20
2009,04,24,14,07,14.20
2009,04,24,14,08,14.40
2009,04,24,14,09,14.50
2009,04,24,14,10,14.60
2009,04,24,14,11,14.60
2009,04,24,14,12,14.60
2009,04,24,14,13,14.60
2009,04,24,14,14,14.50
2009,04,24,14,15,14.50
2009,04,24,14,16,14.50
2009,04,24,14,17,14.60
2009,04,24,14,18,14.60
2009,04,24,14,19,14.60
2009,04,24,14,20,14.70
2009,04,24,14,21,14.70
2009,04,24,14,22,14.70
2009,04,24,14,23,14.80
2009,04,24,14,24,14.90
2009,04,24,14,25,14.90
2009,04,24,14,26,15.00
2009,04,24,14,27,15.00
2009,04,24,14,28,15.00
2009,04,24,14,29,15.00
2009,04,24,14,30,15.10
2009,04,24,14,31,15.20
2009,04,24,14,32,15.10
2009,04,24,14,33,15.20
2009,04,24,14,34,15.30
2009,04,24,14,35,15.30
2009,04,24,14,36,15.30
2009,04,24,14,37,15.20
2009,04,24,14,38,15.20
2009,04,24,14,39,15.20
2009,04,24,14,40,15.20
2009,04,24,14,41,15.20
2009,04,24,14,42,15.10
2009,04,24,14,43,15.10
2009,04,24,14,44,15.00
2009,04,24,14,45,15.00
2009,04,24,14,46,15.10
2009,04,24,14,47,15.10
2009,04,24,14,48,15.20
2009,04,24,14,49,15.30
2009,04,24,14,50,15.30
2009,04,24,14,51,15.30
2009,04,24,14,52,15.30
2009,04,24,14,53,15.20
2009,04,24,14,54,15.10
2009,04,24,14,55,15.00
2009,04,24,14,56,14.90
2009,04,24,14,57,14.80
2009,04,24,14,58,14.70
2009,04,24,14,59,14.70
2009,04,24,15,00,14.70
2009,04,24,15,01,14.70
2009,04,24,15,02,14.70
2009,04,24,15,03,14.70
2009,04,24,15,04,14.70
2009,04,24,15,05,14.60
2009,04,24,15,06,14.50
2009,04,24,15,07,14.50
2009,04,24,15,08,14.40
2009,04,24,15,09,14.40
2009,04,24,15,10,14.50
2009,04,24,15,11,14.60
2009,04,24,15,12,14.60
2009,04,24,15,13,14.60
2009,04,24,15,14,14.70
2009,04,24,15,15,14.60
2009,04,24,15,16,14.60
2009,04,24,15,17,14.60
2009,04,24,15,18,14.50
2009,04,24,15,19,14.40
2009,04,24,15,20,14.30
2009,04,24,15,21,14.20
2009,04,24,15,22,14.20
2009,04,24,15,23,14.20
2009,04,24,15,24,14.30
2009,04,24,15,25,14.50
2009,04,24,15,26,14.60
2009,04,24,15,27,14.70
2009,04,24,15,28,14.70
2009,04,24,15,29,14.60
2009,04,24,15,30,14.60
2009,04,24,15,31,14.70
2009,04,24,15,32,14.70
2009,04,24,15,33,14.60
2009,04,24,15,34,14.60
2009,04,24,15,35,14.60
2009,04,24,15,36,14.60
2009,04,24,15,37,14.50
2009,04,24,15,38,14.50
2009,04,24,15,39,14.50
2009,04,24,15,40,14.50
2009,04,24,15,41,14.50
2009,04,24,15,42,14.60
2009,04,24,15,43,14.50
2009,04,24,15,44,14.50
2009,04,24,15,45,14.50
2009,04,24,15,46,14.50
2009,04,24,15,47,14.40
2009,04,24,15,48,14.30
2009,04,24,15,49,14.40
2009,04,24,15,50,14.40
2009,04,24,15,51,14.40
2009,04,24,15,52,14.30
2009,04,24,15,53,14.30
2009,04,24,15,54,14.20
2009,04,24,15,55,14.30
2009,04,24,15,56,14.40
2009,04,24,15,57,14.40
2009,04,24,15,58,14.50
2009,04,24,15,59,14.50
2009,04,24,16,00,14.50
2009,04,24,16,01,14.50
2009,04,24,16,02,14.50
2009,04,24,16,03,14.50
2009,04,24,16,04,14.50
2009,04,24,16,05,14.50
2009,04,24,16,06,14.60
2009,04,24,16,07,14.60
2009,04,24,16,08,14.60
2009,04,24,16,09,14.60
2009,04,24,16,10,14.60
2009,04,24,16,11,14.60
2009,04,24,16,12,14.60
2009,04,24,16,13,14.60
2009,04,24,16,14,14.60
2009,04,24,16,15,14.60
2009,04,24,16,16,14.70
2009,04,24,16,17,14.70
2009,04,24,16,18,14.80
2009,04,24,16,19,14.80
2009,04,24,16,20,14.80
2009,04,24,16,21,14.70
2009,04,24,16,22,14.70
2009,04,24,16,23,14.70
2009,04,24,16,24,14.70
2009,04,24,16,25,14.60
2009,04,24,16,26,14.60
2009,04,24,16,27,14.60
2009,04,24,16,28,14.50
2009,04,24,16,29,14.40
2009,04,24,16,30,14.40
2009,04,24,16,31,14.30
2009,04,24,16,32,14.30
2009,04,24,16,33,14.30
2009,04,24,16,34,14.30
2009,04,24,16,35,14.40
2009,04,24,16,36,14.40
2009,04,24,16,37,14.40
2009,04,24,16,38,14.30
2009,04,24,16,39,14.30
2009,04,24,16,40,14.30
2009,04,24,16,41,14.30
2009,04,24,16,42,14.30
2009,04,24,16,43,14.20
2009,04,24,16,44,14.20
2009,04,24,16,45,14.20
2009,04,24,16,46,14.10
2009,04,24,16,47,14.10
2009,04,24,16,48,14.10
2009,04,24,16,49,14.10
2009,04,24,16,50,14.10
2009,04,24,16,51,14.00
2009,04,24,16,52,14.00
2009,04,24,16,53,14.00
2009,04,24,16,54,13.90
2009,04,24,16,55,14.00
2009,04,24,16,56,14.10
2009,04,24,16,57,14.00
2009,04,24,16,58,14.00
2009,04,24,16,59,14.00
2009,04,24,17,00,13.90
2009,04,24,17,01,13.90
2009,04,24,17,02,13.80
2009,04,24,17,03,13.80
2009,04,24,17,04,13.80
2009,04,24,17,05,13.70
2009,04,24,17,06,13.70
2009,04,24,17,07,13.80
2009,04,24,17,08,13.80
2009,04,24,17,09,13.80
2009,04,24,17,10,13.80
2009,04,24,17,11,13.80
2009,04,24,17,12,13.90
2009,04,24,17,13,13.90
2009,04,24,17,14,13.90
2009,04,24,17,15,13.90
2009,04,24,17,16,14.00
2009,04,24,17,17,14.00
2009,04,24,17,18,14.00
2009,04,24,17,19,13.90
2009,04,24,17,20,13.90
2009,04,24,17,21,13.90
2009,04,24,17,22,13.80
2009,04,24,17,23,13.70
2009,04,24,17,24,13.70
2009,04,24,17,25,13.70
2009,04,24,17,26,13.70
2009,04,24,17,27,13.80
2009,04,24,17,28,13.80
2009,04,24,17,29,13.80
2009,04,24,17,30,13.80
2009,04,24,17,31,13.70
2009,04,24,17,32,13.70
2009,04,24,17,33,13.60
2009,04,24,17,34,13.60
2009,04,24,17,35,13.60
2009,04,24,17,36,13.60
2009,04,24,17,37,13.60
2009,04,24,17,38,13.60
2009,04,24,17,39,13.50
2009,04,24,17,40,13.50
2009,04,24,17,41,13.40
2009,04,24,17,42,13.30
2009,04,24,17,43,13.30
2009,04,24,17,44,13.30
2009,04,24,17,45,13.20